[[{"header":{"parameterUnit":"m.s-1","parameterCategory":1,"la1":30.2991,"la2":30.254,"lo1":-89.0895,"lo2":-89.0444,"dy":0.0017,"dx":0.0017,"nx":28,"ny":28,"refTime":"2023-11-13T03:00:00:Z","depth":0,"parameterNumber":2,"parameterNumberName":"U-component_of_WINDS"},"data":[0,0,0,0,0,0,0,0,0,0,0,0,0,0,0,0,0,0,0,0,0,0,0,0,0,0,0,0,0,0,0,0,0,0,0,0,0,0,0,0,0,0,0,0,0,0,0,0,0,0,0,0,0,0,0,0,0,0,-3.374,-3.374,0,-3.3758,-3.3758,-3.3758,-3.3644,-3.3641,-3.3638,-3.3635,-3.3654,-3.3657,-3.3661,0,0,0,0,0,0,0,0,0,0,0,0,0,-3.3607,-3.361,-3.374,-3.374,-3.374,-3.3758,-3.3758,-3.3758,-3.3645,-3.3641,-3.3637,-3.3633,-3.3652,-3.3657,-3.3661,0,0,0,0,0,0,0,0,0,0,0,0,0,-3.3649,-3.3611,-3.374,-3.3686,-3.3681,-3.3758,-3.3758,-3.3758,-3.3646,-3.3641,-3.3636,-3.3631,-3.3651,-3.3656,-3.3661,-3.3791,0,0,-3.3678,-3.368,0,0,0,0,0,0,0,0,-3.3647,-3.3654,-3.3693,-3.369,-3.3684,-3.3694,-3.3718,-3.3769,-3.3647,-3.3659,-3.3634,-3.3629,-3.3671,-3.3674,-3.3688,-3.3792,-3.3793,-3.3678,-3.3681,-3.3683,-3.3685,0,0,0,0,0,0,0,-3.3644,-3.3653,-3.3747,-3.3694,-3.3689,-3.3661,-3.3661,-3.3727,-3.3692,-3.3658,-3.3649,-3.3653,-3.3668,-3.3684,-3.3688,-3.3793,-3.3678,-3.3683,-3.3686,-3.3688,-3.4004,-3.4008,0,0,0,0,0,0,-3.3648,-3.3651,-3.3746,-3.3747,-3.3653,-3.3667,-3.3668,-3.3696,-3.3691,-3.3686,-3.3657,-3.3648,-3.3677,-3.3682,-3.3688,-3.384,-3.3683,-3.3688,-3.3691,-3.3998,-3.4005,-3.401,0,0,0,0,0,0,-3.3646,-3.3658,-3.3746,-3.3697,-3.3706,-3.3674,-3.3707,-3.3699,-3.3714,-3.3691,-3.3684,-3.368,-3.3673,-3.3681,-3.3766,-3.3839,-3.3691,-3.3696,-3.3992,-3.4,-3.4007,-3.4144,0,0,0,0,0,0,-3.3643,-3.3658,-3.3707,-3.3699,-3.3709,-3.3824,-3.3711,-3.3702,-3.3724,-3.3711,-3.371,-3.3705,-3.367,-3.3759,-3.3772,-3.3843,-3.37,-3.3986,-3.3996,-3.4005,-3.4133,-3.4155,-3.4175,0,0,0,0,0,-3.3638,-3.3745,-3.371,-3.3722,-3.377,-3.3828,-3.3834,-3.3791,-3.373,-3.3779,-3.3764,-3.3705,-3.3829,-3.3769,-3.3782,-3.3856,-3.3981,-3.3993,-3.4004,-3.4123,-3.4151,-3.4174,0,0,0,0,0,0,-3.3762,-3.3743,-3.3704,-3.3811,-3.3822,-3.3809,-3.3869,-3.3822,-3.3851,-3.3838,-3.3783,-3.3784,-3.3879,-3.3876,-3.3809,-3.3981,-3.3894,-3.3909,-3.398,-3.4006,-3.4027,-3.4026,-3.3704,0,0,0,0,0,-3.3802,-3.3851,-3.3831,-3.3928,-3.3935,-3.3902,-3.3926,-3.3891,-3.3901,-3.3905,-3.3896,-3.3908,-3.3948,-3.3977,-3.4013,-3.4131,-3.413,-3.4189,-3.421,-3.4227,-3.4241,-3.4303,-3.433,-3.4049,-3.4049,-3.4049,0,0,-3.3885,-3.388,-3.3915,-3.3952,-3.3957,-3.4009,-3.3906,-3.3966,-3.4004,-3.3914,-3.3994,-3.3988,-3.3997,-3.41,-3.4144,-3.41,-3.4318,-3.4242,-3.4256,-3.4261,-3.4318,-3.4345,-3.4369,-3.4057,-3.4055,-3.4054,0,0,-3.4062,-3.4064,-3.4144,-3.4151,-3.4159,-3.4136,-3.4155,-3.4149,-3.4142,-3.4221,-3.4155,-3.4199,-3.4271,-3.428,-3.4295,-3.4475,-3.4423,-3.4489,-3.4599,-3.466,-3.4682,-3.4701,-3.4766,-3.479,-3.4502,-3.4503,-3.4503,0,-3.4164,-3.424,-3.4191,-3.4256,-3.4274,-3.4195,-3.4276,-3.4284,-3.4305,-3.4319,-3.4269,-3.4358,-3.4358,-3.4462,-3.4506,-3.452,-3.4541,-3.4489,-3.4683,-3.4702,-3.4719,-3.478,-3.4805,-3.4511,-3.451,-3.4509,-3.4508,0,-3.4365,-3.4419,-3.4483,-3.4504,-3.453,-3.4602,-3.4564,-3.4596,-3.456,-3.4542,-3.4624,-3.4622,-3.4656,-3.4678,-3.4643,-3.4777,-3.4749,-3.4692,-3.4603,-3.4755,-3.4811,-3.4834,-3.4522,-3.4519,-3.4517,-3.4515,0,0,-3.4622,-3.4615,-3.4639,-3.4648,-3.4651,-3.4692,-3.476,-3.4794,-3.4822,-3.4839,-3.4895,-3.4958,-3.4904,-3.4921,-3.4886,-3.494,-3.5083,-3.4875,-3.4875,-3.4915,-3.5231,-3.5274,-3.5302,-3.5048,-3.5052,-3.5056,-3.523,0,-3.4796,-3.4913,-3.4871,-3.499,-3.504,-3.4964,-3.5024,-3.5032,-3.5018,-3.5057,-3.504,-3.5085,-3.5012,-3.5021,-3.5071,-3.5055,-3.5146,-3.5042,-3.51,-3.5103,-3.5101,-3.5332,-3.5378,-3.5543,-3.5252,-3.5256,-3.5258,0,-3.5015,-3.504,-3.5164,-3.5159,-3.5178,-3.5232,-3.5259,-3.5298,-3.5306,-3.5291,-3.5309,-3.5263,-3.533,-3.5241,-3.5332,-3.5262,-3.5283,-3.5279,-3.5285,-3.5289,-3.5191,-3.5343,-3.5594,-3.562,-3.5293,-3.529,-3.5287,0,-3.519,-3.5255,-3.5338,-3.5347,-3.5343,-3.5383,-3.5383,-3.5386,-3.5409,-3.5432,-3.5447,-3.5478,-3.5496,-3.5521,-3.5484,-3.5423,-3.5582,-3.5489,-3.5571,-3.5573,-3.5609,-3.5607,-3.5868,-3.5622,-3.5622,-3.5621,-3.5621,0,-3.5389,-3.5469,-3.5417,-3.5468,-3.5555,-3.5505,-3.5592,-3.5584,-3.5587,-3.5635,-3.5571,-3.5618,-3.5566,-3.5608,-3.5579,-3.566,-3.5668,-3.5658,-3.565,-3.5664,-3.5666,-3.5678,-3.5666,-3.5628,-3.5626,-3.5625,-3.5624,0,-3.5601,-3.5569,-3.5655,-3.5643,-3.5642,-3.5706,-3.5696,-3.5743,-3.5723,-3.5785,-3.5796,-3.5766,-3.5811,-3.5777,-3.5822,-3.5803,-3.5909,-3.5884,-3.5907,-3.59,-3.5984,-3.5977,-3.6263,-3.6298,-3.6029,-3.6031,-3.6034,0,-3.573,-3.579,-3.5784,-3.5812,-3.5816,-3.5861,-3.5884,-3.5837,-3.5864,-3.5877,-3.5923,-3.5963,-3.5992,-3.6069,-3.6051,-3.6085,-3.6061,-3.6158,-3.6065,-3.6078,-3.6063,-3.606,-3.6066,-3.6178,-3.6181,-3.6183,-3.6185,0,-3.5964,-3.5945,-3.598,-3.6011,-3.604,-3.6062,-3.6078,-3.6104,-3.6057,-3.609,-3.6136,-3.6159,-3.6205,-3.6246,-3.6273,-3.6272,-3.6222,-3.6215,-3.6235,-3.6251,-3.6262,-3.6258,-3.5959,-3.6208,-3.6206,-3.6204,-3.6203,-3.6202,-3.6138,-3.6188,-3.6192,-3.6233,-3.6241,-3.6257,-3.6301,-3.6286,-3.6324,-3.6357,-3.6327,-3.6383,-3.6388,-3.642,-3.6426,-3.6468,-3.6428,-3.6458,-3.6466,-3.6475,-3.6487,-3.6255,-3.6473,-3.6472,-3.6472,-3.6471,-3.6471,0,-3.6369,-3.6368,-3.6406,-3.6431,-3.6464,-3.6413,-3.6428,-3.6459,-3.6509,-3.6518,-3.6548,-3.6601,-3.664,-3.6625,-3.6659,-3.6697,-3.6674,-3.6707,-3.6704,-3.6705,-3.6521,-3.6499,-3.6725,-3.6725,-3.6725,-3.6725,-3.6725,-3.6725,-3.6493,-3.6574,-3.6555,-3.6639,-3.6637,-3.669,-3.6704,-3.6719,-3.6726,-3.6788,-3.682,-3.6809,-3.6809,-3.6843,-3.6876,-3.6871,-3.6887,-3.6929,-3.6915,-3.6743,-3.6718,-3.6694,-3.6674,-3.6933,-3.6933,-3.7096,-3.7097,-3.7099]},{"header":{"parameterUnit":"m.s-1","parameterCategory":1,"la1":30.2991,"la2":30.254,"lo1":-89.0895,"lo2":-89.0444,"dy":0.0017,"dx":0.0017,"nx":28,"ny":28,"refTime":"2023-11-13T03:00:00:Z","depth":0,"parameterNumber":3,"parameterNumberName":"V-component_of_WINDS"},"data":[0,0,0,0,0,0,0,0,0,0,0,0,0,0,0,0,0,0,0,0,0,0,0,0,0,0,0,0,0,0,0,0,0,0,0,0,0,0,0,0,0,0,0,0,0,0,0,0,0,0,0,0,0,0,0,0,0,0,-5.0005,-5.0006,0,-5.0021,-5.0021,-5.0021,-4.9941,-4.9939,-4.9937,-4.9934,-4.9949,-4.9951,-4.9954,0,0,0,0,0,0,0,0,0,0,0,0,0,-4.9904,-4.9907,-5.0005,-5.0006,-5.0006,-5.0021,-5.0021,-5.0021,-4.9942,-4.9939,-4.9936,-4.9933,-4.9948,-4.9951,-4.9954,0,0,0,0,0,0,0,0,0,0,0,0,0,-4.9937,-4.9907,-5.0005,-4.9968,-4.9965,-5.0021,-5.0021,-5.0021,-4.9942,-4.9939,-4.9935,-4.9932,-4.9947,-4.9951,-4.9955,-5.0047,0,0,-4.9966,-4.9968,0,0,0,0,0,0,0,0,-4.9935,-4.9941,-4.9973,-4.9971,-4.9967,-4.9976,-4.9991,-5.003,-4.9943,-4.9951,-4.9934,-4.993,-4.9961,-4.9963,-4.9973,-5.0048,-5.0048,-4.9966,-4.9969,-4.997,-4.9971,0,0,0,0,0,0,0,-4.9933,-4.994,-5.0011,-4.9974,-4.997,-4.9949,-4.995,-4.9998,-4.9975,-4.995,-4.9944,-4.9947,-4.9958,-4.997,-4.9973,-5.0049,-4.9966,-4.997,-4.9972,-4.9974,-5.0198,-5.0201,0,0,0,0,0,0,-4.9936,-4.9938,-5.0011,-5.0012,-4.9942,-4.9954,-4.9955,-4.9976,-4.9974,-4.997,-4.995,-4.9943,-4.9965,-4.9969,-4.9973,-5.008,-4.997,-4.9974,-4.9976,-5.0194,-5.0199,-5.0203,0,0,0,0,0,0,-4.9934,-4.9943,-5.001,-4.9974,-4.9981,-4.996,-4.9984,-4.9979,-4.999,-4.9974,-4.9969,-4.9966,-4.9963,-4.9968,-5.0029,-5.008,-4.9976,-4.9979,-5.019,-5.0196,-5.0201,-5.0296,0,0,0,0,0,0,-4.9932,-4.9943,-4.9979,-4.9975,-4.9983,-5.0067,-4.9987,-4.9981,-4.9997,-4.9989,-4.9988,-4.9985,-4.996,-5.0024,-5.0033,-5.0083,-4.9982,-5.0185,-5.0193,-5.0199,-5.0288,-5.0304,-5.0318,0,0,0,0,0,-4.9928,-5.0005,-4.9981,-4.999,-5.0027,-5.007,-5.0074,-5.0045,-5.0002,-5.0037,-5.0026,-4.9985,-5.0073,-5.0031,-5.004,-5.0093,-5.0182,-5.019,-5.0199,-5.0282,-5.0301,-5.0318,0,0,0,0,0,0,-5.0015,-5.0004,-4.9977,-5.0055,-5.0064,-5.0056,-5.01,-5.0067,-5.0088,-5.0079,-5.0041,-5.0041,-5.0108,-5.0106,-5.006,-5.0181,-5.012,-5.013,-5.018,-5.0198,-5.0213,-5.0211,-4.9985,0,0,0,0,0,-5.0043,-5.008,-5.0068,-5.0138,-5.0144,-5.0121,-5.0139,-5.0115,-5.0123,-5.0126,-5.012,-5.0129,-5.0158,-5.0178,-5.0204,-5.0288,-5.0286,-5.0328,-5.0343,-5.0355,-5.0365,-5.0407,-5.0426,-5.023,-5.023,-5.023,0,0,-5.0102,-5.01,-5.0126,-5.0155,-5.0159,-5.0197,-5.0125,-5.0168,-5.0195,-5.0132,-5.0189,-5.0186,-5.0192,-5.0265,-5.0297,-5.0265,-5.0418,-5.0366,-5.0376,-5.0378,-5.0418,-5.0436,-5.0453,-5.0236,-5.0235,-5.0234,0,0,-5.0228,-5.0231,-5.0289,-5.0294,-5.0302,-5.0286,-5.03,-5.0297,-5.0292,-5.0349,-5.0302,-5.0334,-5.0386,-5.0392,-5.0402,-5.053,-5.0492,-5.0539,-5.0616,-5.0658,-5.0674,-5.0687,-5.0731,-5.0748,-5.0549,-5.0549,-5.0549,0,-5.03,-5.0355,-5.0323,-5.0369,-5.0382,-5.0328,-5.0385,-5.0392,-5.0408,-5.0418,-5.0383,-5.0446,-5.0447,-5.0519,-5.055,-5.0561,-5.0575,-5.0539,-5.0674,-5.0687,-5.0699,-5.0741,-5.0758,-5.0555,-5.0554,-5.0553,-5.0553,0,-5.0442,-5.0481,-5.0527,-5.0544,-5.0562,-5.0614,-5.0589,-5.0612,-5.0586,-5.0574,-5.0632,-5.0631,-5.0656,-5.0671,-5.0647,-5.074,-5.0721,-5.0681,-5.0618,-5.0724,-5.0763,-5.0779,-5.0563,-5.0561,-5.0559,-5.0558,0,0,-5.0623,-5.0621,-5.0638,-5.0644,-5.0648,-5.0677,-5.0726,-5.075,-5.077,-5.0782,-5.0821,-5.0866,-5.0829,-5.084,-5.0816,-5.0853,-5.0953,-5.0808,-5.0808,-5.0834,-5.1054,-5.1083,-5.1103,-5.0928,-5.0931,-5.0934,-5.1053,0,-5.0745,-5.0829,-5.0801,-5.0885,-5.092,-5.0868,-5.091,-5.0917,-5.0907,-5.0934,-5.0923,-5.0954,-5.0904,-5.091,-5.0945,-5.0934,-5.0996,-5.0925,-5.0963,-5.0965,-5.0962,-5.1123,-5.1154,-5.1267,-5.1068,-5.1071,-5.1073,0,-5.0899,-5.0918,-5.1006,-5.1002,-5.1016,-5.1055,-5.1074,-5.1101,-5.1107,-5.1097,-5.111,-5.1077,-5.1124,-5.1062,-5.1125,-5.1077,-5.1091,-5.1088,-5.1092,-5.1093,-5.1025,-5.1128,-5.1302,-5.1319,-5.1096,-5.1094,-5.1093,0,-5.1021,-5.1068,-5.1126,-5.1133,-5.1131,-5.1159,-5.1159,-5.1162,-5.1178,-5.1194,-5.1204,-5.1226,-5.1238,-5.1256,-5.123,-5.1188,-5.1296,-5.1233,-5.1288,-5.1289,-5.1313,-5.1312,-5.1491,-5.1324,-5.1324,-5.1324,-5.1323,0,-5.116,-5.1215,-5.118,-5.1216,-5.1277,-5.1243,-5.1304,-5.1298,-5.1301,-5.1334,-5.129,-5.1322,-5.1287,-5.1315,-5.1295,-5.135,-5.1356,-5.1348,-5.1342,-5.1352,-5.1352,-5.136,-5.1351,-5.1328,-5.1327,-5.1326,-5.1325,0,-5.1305,-5.1285,-5.1345,-5.1337,-5.1337,-5.1382,-5.1375,-5.1407,-5.1394,-5.1436,-5.1444,-5.1424,-5.1455,-5.1431,-5.1462,-5.1448,-5.152,-5.1503,-5.1518,-5.1513,-5.1569,-5.1564,-5.1759,-5.1783,-5.1602,-5.1603,-5.1605,0,-5.1395,-5.1436,-5.1434,-5.1453,-5.1456,-5.1488,-5.1503,-5.1472,-5.149,-5.1499,-5.1531,-5.1558,-5.1578,-5.163,-5.1617,-5.164,-5.1623,-5.169,-5.1626,-5.1634,-5.1623,-5.162,-5.1623,-5.1702,-5.1705,-5.1706,-5.1708,0,-5.1556,-5.1543,-5.1568,-5.1589,-5.1609,-5.1625,-5.1636,-5.1654,-5.1622,-5.1645,-5.1676,-5.1692,-5.1723,-5.175,-5.1768,-5.1768,-5.1732,-5.1728,-5.1742,-5.1751,-5.1758,-5.1754,-5.1552,-5.1723,-5.1722,-5.1721,-5.172,-5.1719,-5.1675,-5.1709,-5.1712,-5.1741,-5.1746,-5.1758,-5.1788,-5.1778,-5.1803,-5.1826,-5.1806,-5.1843,-5.1847,-5.1868,-5.1872,-5.19,-5.1872,-5.1893,-5.1898,-5.1903,-5.1911,-5.1754,-5.1903,-5.1903,-5.1902,-5.1902,-5.1902,0,-5.1832,-5.1832,-5.1859,-5.1876,-5.1898,-5.1863,-5.1874,-5.1895,-5.1929,-5.1935,-5.1956,-5.1991,-5.2017,-5.2006,-5.2029,-5.2054,-5.2038,-5.2061,-5.2058,-5.2058,-5.1935,-5.192,-5.2073,-5.2073,-5.2073,-5.2073,-5.2073,-5.2073,-5.1917,-5.1972,-5.196,-5.2017,-5.2015,-5.2051,-5.206,-5.2071,-5.2075,-5.2117,-5.2138,-5.2131,-5.2131,-5.2153,-5.2175,-5.2171,-5.2181,-5.221,-5.22,-5.2084,-5.2067,-5.2051,-5.2037,-5.2212,-5.2212,-5.2321,-5.2322,-5.2323]}]]